Regional Weather Roundup
Issued by NWS

Home | Current Version | Previous Version | Graphics & Text | Print | Product List | Glossary On
Versions: 1 2 3 4 5 6 7 8 9 10 11 12 13 14 15 16 17 18 19 20 21 22 23 24 25 26 27 28 29 30 31 32 33 34 35 36 37 38 39 40 41 42 43 44 45 46 47 48 49 50
000
ASUS43 KLMK 221310
RWRKY
KENTUCKY REGIONAL WEATHER ROUNDUP
NATIONAL WEATHER SERVICE LOUISVILLE KY
800 AM EST MON JAN 22 2018

NOTE "FAIR" INDICATES FEW OR NO CLOUDS BELOW 12,000 FEET
WITH NO SIGNIFICANT WEATHER AND/OR OBSTRUCTIONS TO VISIBILITY.

KYZ001>023-026-027-061>063-070>075-221400-
WESTERN AND SOUTH CENTRAL KENTUCKY

CITY           SKY/WX    TMP DP  RH WIND       PRES   REMARKS
PADUCAH        LGT RAIN  54  50  86 S13G21    29.78F
HENDERSON      RAIN      52  49  89 S12       29.83F
OWENSBORO      RAIN      54  46  76 W17G26    29.87R
HOPKINSVILLE   MOCLDY    59  42  53 S18G28    29.80R
BOWLING GREEN  FAIR      59  44  57 S15G30    29.87F
GLASGOW        FAIR      57  42  58 S7G17     29.90F
$$

KYZ024-025-028>034-038-045-046-053-221400-
NORTH CENTRAL KENTUCKY

CITY           SKY/WX    TMP DP  RH WIND       PRES   REMARKS
LOUISVILLE/SDF CLOUDY    59  44  57 S18G29    29.84F
LOUISVILLE/LOU FAIR      58  45  62 S16       29.86S
FORT KNOX      PTCLDY    55  43  64 S22G28    29.87S
$$

KYZ035>037-039>044-047>052-055>060-089>105-221400-
NORTHEAST KENTUCKY

CITY           SKY/WX    TMP DP  RH WIND       PRES   REMARKS
LEXINGTON      FAIR      56  43  61 S17G24    29.91F
COVINGTON      CLOUDY    53  45  74 S17       29.85F
FRANKFORT      FAIR      55  42  61 S12       29.88F
$$

KYZ054-064>069-076>088-106>120-221400-
SOUTHEAST KENTUCKY

CITY           SKY/WX    TMP DP  RH WIND       PRES   REMARKS
JACKSON        FAIR      55  42  61 VRB5      29.98F
LONDON         FAIR      56  42  59 S10G21    29.98F
SOMERSET       FAIR      55  41  58 S6        29.97F
MIDDLESBORO    FAIR      37  37 100 CALM      30.06F
MONTICELLO     NOT AVBL
$$





USA.gov is the U.S. government's official web portal to all federal, state and local government web resources and services.